Waarnemingen

Advertentie
Mijn weer
Ahaus, Duitsland (10309): temperatuur & dauwpunt: 16.11.2017 08:00:00 - 22.11.2017 08:00:00 (CET)Ahaus, Duitsland (10309): temperatuur 5cm & temperatuur -5cm: 16.11.2017 08:00:00 - 22.11.2017 08:00:00 (CET)Ahaus, Duitsland (10309): temperatuur -20cm & temperatuur -100cm: 16.11.2017 08:00:00 - 22.11.2017 08:00:00 (CET)Ahaus, Duitsland (10309): windsnelheid & windstoten: 16.11.2017 08:00:00 - 22.11.2017 08:00:00 (CET)Ahaus, Duitsland (10309): windrichting: 16.11.2017 08:00:00 - 22.11.2017 08:00:00 (CET)Ahaus, Duitsland (10309): luchtdruk: 16.11.2017 08:00:00 - 22.11.2017 08:00:00 (CET)Ahaus, Duitsland (10309): zicht: 16.11.2017 08:00:00 - 22.11.2017 08:00:00 (CET)Ahaus, Duitsland (10309): Zonneschijnduur: 16.11.2017 08:00:00 - 22.11.2017 08:00:00 (CET)Ahaus, Duitsland (10309): neerslag: 16.11.2017 08:00:00 - 22.11.2017 08:00:00 (CET)
Datum & Tijd tt [°C] td [°C] tt 5cm [°C] tt -5cm [°C] tt -20cm [°C] tt -100cm [°C] ff [km/u] ff [kn] fx [km/u] fx [kn] dd ppp [hPa] vv [km] sd [min] rr [mm]
22.11.2017 08:00:00 10,5 7,5 9,4 8,7 8,4 9,5 24 13 39 21 ZZW 1005,9 16 0 0,1
22.11.2017 07:00:00 10,0 8,1 8,9 8,7 8,4 9,5 22 12 43 23 ZW 1005,7 4,1 0 0,1
22.11.2017 06:00:00 10,1 7,8 9,1 8,7 8,4 9,5 24 13 42 23 ZW 1005,9 15 0 0,0
22.11.2017 05:00:00 10,0 7,9 9,4 8,7 8,4 9,5 24 13 41 22 ZZW 1006,0 11 0 0,0
22.11.2017 04:00:00 10,4 7,4 9,9 8,6 8,5 9,5 21 12 36 19 ZW 1006,4 16 0 0,0
22.11.2017 03:00:00 10,0 7,3 9,5 8,6 8,5 9,5 26 14 41 22 ZZW 1006,8 15 0 0,0
22.11.2017 02:00:00 10,1 7,4 9,5 8,7 8,5 9,5 23 13 41 22 ZW 1007,2 13 0 0,0
22.11.2017 01:00:00 9,8 7,4 9,3 8,7 8,6 9,5 25 13 41 22 ZZW 1007,8 12 0 0,0
22.11.2017 00:00:00 9,6 7,4 9,2 8,9 8,6 9,5 25 14 43 23 ZZW 1007,8 11 0 0,0
21.11.2017 23:00:00 9,8 7,7 9,3 9,0 8,6 9,5 21 11 39 21 ZW 1008,4 9 0 0,0
21.11.2017 22:00:00 9,8 8,0 9,4 9,1 8,6 9,5 20 11 36 19 ZW 1008,8 10 0 0,0
21.11.2017 21:00:00 10,0 8,4 9,6 9,3 8,6 9,5 23 12 38 21 ZW 1008,9 9 0 0,0
21.11.2017 20:00:00 10,3 8,7 9,9 9,5 8,6 9,5 22 12 40 21 ZW 1009,2 7 0 0,0
21.11.2017 19:00:00 10,5 9,4 9,8 9,7 8,6 9,5 21 11 45 25 ZW 1009,0 5 0 0,0
21.11.2017 18:00:00 10,6 9,9 10,2 9,8 8,5 9,5 23 13 43 23 ZW 1009,3 2,5 0 0,1
21.11.2017 17:00:00 11,4 10,6 10,8 10,0 8,4 9,5 19 10 47 26 ZW 1009,1 5 0 0,1
21.11.2017 16:00:00 11,8 10,7 11,0 10,0 8,3 9,5 21 11 41 22 WZW 1008,8 7 0 0,1
21.11.2017 15:00:00 11,7 11,0 11,2 10,1 8,2 9,5 18 10 42 23 WZW 1009,2 2,8 0 0,0
21.11.2017 14:00:00 11,9 11,3 11,5 10,0 8,1 9,6 19 10 38 20 WZW 1009,1 9 0 0,0
21.11.2017 13:00:00 11,6 11,2 11,4 9,8 7,9 9,6 14 8 23 13 ZW 1009,6 6 0 0,3
21.11.2017 12:00:00 11,1 10,8 10,9 9,5 7,8 9,6 12 6 24 13 ZW 1010,2 2,5 0 0,9
21.11.2017 11:00:00 11,2 10,7 10,9 9,3 7,7 9,6 11 6 22 12 ZW 1010,5 3,9 0 0,6
21.11.2017 10:00:00 11,1 10,7 10,8 9,0 7,5 9,6 11 6 22 12 ZW 1010,6 3,0 0 0,9
21.11.2017 09:00:00 11,0 10,5 10,6 8,7 7,4 9,6 11 6 22 12 WZW 1010,6 2,7 0 0,5
21.11.2017 08:00:00 10,7 10,3 10,3 8,6 7,3 9,6 10 5 19 10 WZW 1010,2 4,3 0 0,5
21.11.2017 07:00:00 10,8 10,2 10,2 8,5 7,2 9,6 12 6 21 12 WZW 1010,1 4,1 0 0,1
21.11.2017 06:00:00 10,8 10,2 10,3 8,4 7,1 9,6 9 5 23 13 WZW 1010,1 2,1 0 0,0
21.11.2017 05:00:00 10,8 10,3 10,2 8,3 7,0 9,6 11 6 23 13 WZW 1010,1 4,8 0 0,1
21.11.2017 04:00:00 10,7 10,2 10,2 8,1 6,9 9,6 9 5 19 11 WZW 1009,9 6 0 0,2
21.11.2017 03:00:00 10,5 9,9 9,9 8,0 6,8 9,6 10 5 19 11 WZW 1010,0 6 0 0,1
21.11.2017 02:00:00 10,7 9,8 10,1 7,9 6,6 9,6 14 8 29 16 W 1009,9 8 0 0,0
21.11.2017 01:00:00 10,6 10,3 10,1 7,8 6,4 9,7 11 6 25 13 W 1009,3 6 0 0,0
21.11.2017 00:00:00 10,2 9,9 9,8 7,5 6,3 9,7 12 7 23 13 ZW 1009,3 4,7 0 0,1
20.11.2017 23:00:00 10,0 9,8 9,6 7,2 6,1 9,7 13 7 26 14 WZW 1009,3 2,6 0 1,2
20.11.2017 22:00:00 9,7 9,4 9,2 6,8 6,0 9,7 14 7 27 14 ZW 1009,2 3,6 0 0,8
20.11.2017 21:00:00 9,0 8,7 8,5 6,3 5,9 9,7 16 9 27 14 ZW 1009,3 3,4 0 2,1
20.11.2017 20:00:00 7,7 7,5 7,3 6,0 5,8 9,7 15 8 27 15 ZW 1009,5 2,3 0 3,1
20.11.2017 19:00:00 7,1 6,8 6,7 5,6 5,8 9,7 16 9 27 15 ZW 1009,8 2,9 0 1,5
20.11.2017 18:00:00 6,2 5,8 5,8 5,4 5,7 9,7 17 9 29 16 ZZW 1010,2 3,0 0 1,2
20.11.2017 17:00:00 5,5 5,1 5,3 5,3 5,7 9,7 17 9 33 18 ZZW 1011,2 1,8 0 1,1
20.11.2017 16:00:00 5,1 4,5 4,8 5,2 5,7 9,7 20 11 31 17 ZZW 1012,1 2,7 0 1,2
20.11.2017 15:00:00 4,5 3,9 4,3 5,2 5,7 9,7 18 10 31 17 Z 1013,3 7 0 0,9
20.11.2017 14:00:00 4,1 3,0 4,0 5,2 5,6 9,7 17 9 29 16 Z 1014,7 10 0 0,5
20.11.2017 13:00:00 4,0 2,9 3,9 5,1 5,6 9,7 20 11 33 18 ZZW 1016,1 6 0 0,1
20.11.2017 12:00:00 4,0 3,0 3,9 5,0 5,6 9,8 18 10 29 16 ZZW 1017,3 7 0 0,2
20.11.2017 11:00:00 3,9 2,7 3,6 4,8 5,5 9,8 18 10 29 16 ZW 1018,0 8 0 0,6
20.11.2017 10:00:00 4,2 3,1 3,8 4,7 5,5 9,8 16 9 28 15 ZW 1018,4 4,6 0 0,8
20.11.2017 09:00:00 4,4 3,3 3,9 4,6 5,5 9,8 11 6 21 12 ZW 1018,8 5 0 0,8
20.11.2017 08:00:00 4,9 2,8 4,0 4,5 5,5 9,8 13 7 27 15 WZW 1019,0 8 0 0,0
20.11.2017 07:00:00 4,9 3,0 4,1 4,6 5,5 9,8 13 7 23 12 ZW 1018,8 20 0 0,0
20.11.2017 06:00:00 5,1 3,7 4,4 4,5 5,5 9,8 9 5 22 12 WZW 1018,9 18 0 0,0
20.11.2017 05:00:00 5,2 3,6 4,7 4,3 5,5 9,8 11 6 20 11 ZW 1019,0 19 0 0,0
20.11.2017 04:00:00 5,1 3,7 4,0 4,2 5,5 9,8 8 4 23 12 WZW 1019,2 24 0 0,0
20.11.2017 03:00:00 5,1 3,4 4,3 4,1 5,5 9,8 12 7 23 12 WZW 1019,6 27 0 0,0
20.11.2017 02:00:00 4,7 3,1 4,1 3,8 5,6 9,8 9 5 17 9 WZW 1019,7 33 0 0,0
20.11.2017 01:00:00 4,5 3,0 2,7 3,9 5,7 9,8 10 6 23 13 WZW 1019,8 27 0 0,0
20.11.2017 00:00:00 5,0 3,0 4,2 4,0 5,8 9,8 11 6 24 13 W 1019,9 35 0 0,0
19.11.2017 23:00:00 5,1 3,0 3,9 3,9 5,9 9,8 14 7 25 14 W 1020,0 31 0 0,0
19.11.2017 22:00:00 4,5 2,6 2,6 4,0 6,0 9,9 13 7 26 14 W 1019,7 30 0 0,0
19.11.2017 21:00:00 4,6 2,5 2,6 4,3 6,2 9,9 11 6 24 13 W 1019,0 34 0 0,0
19.11.2017 20:00:00 4,9 2,5 2,7 4,7 6,3 9,9 11 6 46 25 WZW 1018,6 34 0 0,0
19.11.2017 19:00:00 5,4 3,0 3,9 5,0 6,4 9,9 14 8 24 13 W 1018,3 33 0 0,0
19.11.2017 18:00:00 5,8 3,2 3,7 5,4 6,4 9,9 16 9 35 19 W 1017,7 38 0 0,0
19.11.2017 17:00:00 6,3 3,4 4,0 6,0 6,4 9,9 16 9 26 14 W 1017,0 30 0 0,3
19.11.2017 16:00:00 5,8 3,6 4,9 6,8 6,3 9,9 20 11 55 30 WNW 1016,8 9 17 1,3
19.11.2017 15:00:00 8,8 3,1 9,0 7,3 6,0 9,9 26 14 48 26 WNW 1016,0 32 25 0,0
19.11.2017 14:00:00 8,9 4,1 9,5 7,0 5,8 9,9 23 13 48 26 WNW 1015,8 31 39 0,0
19.11.2017 13:00:00 8,0 4,3 9,5 6,1 5,6 9,9 18 10 41 22 W 1015,4 30 48 0,0
19.11.2017 12:00:00 7,5 3,3 8,0 5,3 5,5 9,9 26 14 46 25 W 1015,5 25 47 0,0
19.11.2017 11:00:00 6,6 3,1 6,5 4,7 5,4 9,9 23 12 38 20 W 1015,4 25 25 0,0
19.11.2017 10:00:00 5,0 2,7 4,8 3,8 5,5 9,9 14 8 29 16 W 1014,9 33 28 0,0
19.11.2017 09:00:00 3,8 2,2 2,6 3,5 5,6 9,9 13 7 29 16 WZW 1014,7 42 0 0,0
19.11.2017 08:00:00 3,6 2,0 2,3 3,6 5,6 9,9 13 7 27 14 WZW 1014,4 36 0 0,2
19.11.2017 07:00:00 4,4 2,4 3,4 3,6 5,7 9,9 17 9 34 18 W 1014,5 43 0 0,1
19.11.2017 06:00:00 3,7 1,6 2,0 3,9 5,8 10,0 13 7 23 13 WZW 1013,9 42 0 0,1
19.11.2017 05:00:00 4,3 2,1 3,4 4,0 5,9 10,0 16 9 29 15 W 1014,1 12 0 0,0
19.11.2017 04:00:00 3,5 1,9 2,1 4,1 6,0 10,0 9 5 20 11 WZW 1013,9 38 0 0,0
19.11.2017 03:00:00 4,1 2,3 2,3 4,6 6,1 10,0 10 6 22 12 WZW 1013,9 36 0 0,0
19.11.2017 02:00:00 4,6 3,0 3,9 4,7 6,1 10,0 9 5 20 11 WZW 1014,0 26 0 0,0
19.11.2017 01:00:00 4,7 3,1 3,9 4,8 6,2 10,0 8 5 19 10 W 1014,3 30 0 0,0
19.11.2017 00:00:00 4,6 2,8 3,2 4,9 6,2 10,0 11 6 20 11 WZW 1014,4 38 0 0,0
18.11.2017 23:00:00 5,0 3,2 4,3 5,0 6,3 10,0 11 6 19 10 WZW 1014,7 34 0 0,0
18.11.2017 22:00:00 4,8 3,2 3,6 5,1 6,3 10,0 10 5 20 11 WZW 1014,8 36 0 0,0
18.11.2017 21:00:00 4,9 3,5 4,0 5,2 6,4 10,0 10 5 15 8 WZW 1015,0 33 0 0,0
18.11.2017 20:00:00 5,0 3,8 4,2 5,3 6,4 10,0 8 5 13 7 WZW 1015,3 35 0 0,0
18.11.2017 19:00:00 5,1 4,0 4,1 5,4 6,5 10,0 7 4 21 12 WZW 1015,5 32 0 0,0
18.11.2017 18:00:00 4,9 4,0 4,4 5,5 6,5 10,0 10 5 21 11 WZW 1015,8 34 0 0,0
18.11.2017 17:00:00 5,0 3,9 4,4 5,7 6,5 10,0 11 6 20 11 W 1015,6 51 0 0,2
18.11.2017 16:00:00 4,1 3,3 3,9 5,9 6,5 10,0 10 6 50 27 WZW 1015,7 13 0 2,2
18.11.2017 15:00:00 7,5 4,7 7,3 6,4 6,4 10,0 17 9 46 25 WZW 1015,1 28 3 0,0
18.11.2017 14:00:00 6,8 4,2 6,1 6,1 6,3 10,0 22 12 41 22 WZW 1015,4 24 0 0,3
18.11.2017 13:00:00 6,9 3,0 6,5 6,1 6,2 10,0 21 11 47 26 ZW 1016,0 18 3 0,0
18.11.2017 12:00:00 6,4 2,4 6,4 5,7 6,2 10,0 23 12 40 22 ZW 1017,0 20 0 0,0
18.11.2017 11:00:00 6,2 2,1 6,2 5,3 6,1 10,0 21 11 40 21 ZW 1017,8 24 0 0,0
18.11.2017 10:00:00 6,0 1,7 5,7 5,0 6,1 10,0 22 12 40 22 ZW 1018,2 26 0 0,0
18.11.2017 09:00:00 5,3 1,6 4,8 4,9 6,1 10,0 19 10 31 17 ZW 1019,1 22 0 0,0
18.11.2017 08:00:00 5,5 1,5 4,9 4,9 6,2 10,0 16 9 31 17 ZW 1019,6 21 0 0,0
18.11.2017 07:00:00 5,6 1,5 4,9 4,8 6,2 10,0 15 8 27 14 ZW 1019,9 23 0 0,0
18.11.2017 06:00:00 5,4 1,5 4,7 4,8 6,2 10,0 15 8 28 15 ZW 1020,6 26 0 0,0
18.11.2017 05:00:00 5,4 1,5 4,6 4,7 6,2 10,0 15 8 24 13 ZW 1021,2 26 0 0,0
18.11.2017 04:00:00 4,9 1,8 4,1 4,6 6,2 10,0 10 5 17 9 ZW 1022,0 25 0 0,0
18.11.2017 03:00:00 5,0 1,6 4,2 4,4 6,3 10,0 11 6 22 12 ZW 1022,7 24 0 0,0
18.11.2017 02:00:00 4,4 1,5 3,4 4,2 6,4 10,0 12 7 19 10 ZZW 1023,4 24 0 0,0
18.11.2017 01:00:00 3,7 1,4 2,0 3,8 6,6 10,0 7 4 14 7 ZW 1024,2 21 0 0,0
18.11.2017 00:00:00 3,0 1,1 -0,3 4,0 6,7 10,0 8 5 12 6 ZZW 1024,6 20 0 0,0
17.11.2017 23:00:00 3,4 1,4 -0,2 4,5 6,9 10,0 7 4 10 6 ZW 1025,0 22 0 0,0
17.11.2017 22:00:00 3,8 1,7 0,6 4,9 7,0 10,0 8 4 12 7 ZW 1025,3 23 0 0,0
17.11.2017 21:00:00 3,9 2,0 1,1 5,2 7,2 10,0 6 3 9 5 ZW 1025,6 23 0 0,0
17.11.2017 20:00:00 4,7 1,9 2,0 5,5 7,3 10,0 6 3 11 6 ZW 1025,8 21 0 0,0
17.11.2017 19:00:00 3,6 1,7 1,2 5,5 7,5 10,0 5 3 10 6 ZZW 1026,1 25 0 0,0
17.11.2017 18:00:00 4,5 2,0 -0,7 6,1 7,6 10,0 5 3 8 5 ZW 1026,2 28 0 0,0
17.11.2017 17:00:00 5,9 2,5 0,4 6,9 7,6 10,0 5 3 10 6 ZW 1026,2 42 1 0,0
17.11.2017 16:00:00 8,5 1,7 6,6 7,6 7,5 10,0 7 4 14 8 W 1026,5 38 33 0,0
17.11.2017 15:00:00 9,3 1,1 9,6 8,0 7,3 10,0 9 5 19 11 WNW 1026,6 31 41 0,0
17.11.2017 14:00:00 10,0 2,1 12,5 7,7 7,1 10,0 10 5 16 9 W 1027,1 21 55 0,0
17.11.2017 13:00:00 9,4 2,5 11,8 7,2 6,9 10,0 7 4 11 6 WNW 1027,4 47 60 0,0
17.11.2017 12:00:00 8,4 3,5 10,6 6,6 6,8 10,0 5 3 11 6 WNW 1027,7 36 45 0,0
17.11.2017 11:00:00 6,8 4,1 8,0 5,3 6,8 10,0 6 3 8 4 W 1027,8 27 55 0,0
17.11.2017 10:00:00 4,1 3,4 5,2 4,4 7,0 10,0 6 3 7 4 ZZW 1027,6 13 60 0,0
17.11.2017 09:00:00 1,4 1,2 -0,1 4,1 7,2 10,0 4 2 6 3 ZZW 1027,8 3,3 20 0,0
17.11.2017 08:00:00 0,7 0,7 -2,0 4,5 7,5 10,0 4 2 5 3 W 1027,1 0,4 0 0,0
17.11.2017 07:00:00 1,5 1,5 -1,3 5,0 7,8 10,0 4 2 5 3 W 1026,4 0,7 0 0,0
17.11.2017 06:00:00 3,0 3,0 -0,8 5,7 8,0 10,0 5 3 6 3 WNW 1026,0 1,7 0 0,0
17.11.2017 05:00:00 5,2 5,2 0,8 6,4 8,1 10,0 6 3 9 5 NW 1025,7 10 0 0,0
17.11.2017 04:00:00 6,3 6,0 3,6 7,2 8,2 10,0 8 4 13 7 NW 1025,2 11 0 0,0
17.11.2017 03:00:00 7,7 7,1 6,7 7,9 8,3 10,0 10 5 14 7 NW 1024,7 14 0 0,0
17.11.2017 02:00:00 8,3 7,5 7,3 8,2 8,3 10,0 6 4 16 9 WNW 1024,2 11 0 0,0
17.11.2017 01:00:00 8,8 7,5 8,1 8,4 8,3 10,0 10 5 18 10 NW 1023,8 12 0 0,0
17.11.2017 00:00:00 9,6 8,7 8,9 8,5 8,2 10,0 13 7 22 12 WNW 1023,2 5 0 0,3
16.11.2017 23:00:00 9,5 9,0 9,1 8,4 8,2 10,0 9 5 14 8 WZW 1022,8 2,6 0 0,0
16.11.2017 22:00:00 9,1 9,0 8,9 8,3 8,2 10,0 8 4 16 8 WZW 1022,9 2,1 0 0,0
16.11.2017 21:00:00 8,6 8,5 8,4 8,2 8,2 10,0 9 5 18 10 ZW 1022,7 1,7 0 0,0
16.11.2017 20:00:00 8,3 8,2 8,2 8,2 8,2 10,0 13 7 19 11 ZZW 1022,4 1,0 0 0,0
16.11.2017 19:00:00 8,2 7,7 7,9 8,1 8,2 10,0 11 6 20 11 ZW 1022,3 3,4 0 0,0
16.11.2017 18:00:00 8,0 7,1 7,7 8,2 8,3 10,0 12 7 18 10 ZZW 1022,2 4,6 0 0,0
16.11.2017 17:00:00 8,0 6,9 7,9 8,4 8,3 10,0 13 7 21 11 ZZW 1022,1 6 0 0,0
16.11.2017 16:00:00 8,3 6,5 8,2 8,6 8,2 10,0 13 7 23 12 ZZW 1022,1 8 0 0,0
16.11.2017 15:00:00 8,6 6,6 8,6 8,7 8,2 10,0 13 7 25 13 ZZW 1022,1 9 0 0,0
16.11.2017 14:00:00 8,6 6,0 8,6 8,9 8,1 10,0 14 8 25 13 Z 1022,6 10 0 0,0
16.11.2017 13:00:00 8,8 6,4 8,9 8,9 8,0 10,0 14 7 22 12 ZZW 1023,1 9 4 0,0
16.11.2017 12:00:00 8,5 6,3 8,5 8,7 8,0 10,0 16 9 27 14 ZZW 1023,3 9 0 0,0
16.11.2017 11:00:00 8,2 6,6 8,3 8,3 7,9 10,0 14 8 22 12 ZZW 1023,6 7 0 0,0
16.11.2017 10:00:00 8,0 7,2 7,9 8,1 7,9 10,0 11 6 21 11 Z 1023,7 4,4 0 0,0
16.11.2017 09:00:00 8,3 7,6 8,0 8,0 7,9 10,0 12 6 20 11 ZZW 1023,8 4,1 0 0,0
16.11.2017 08:00:00 8,3 7,7 8,0 8,0 7,9 10,0 14 7 20 11 Z 1023,3 4,1 0 0,0

tt = temperatuur
td = dauwpunt
tt 5cm = temperatuur 5cm
tt -5cm = temperatuur -5cm
tt -20cm = temperatuur -20cm
tt -100cm = temperatuur -100cm
ff = windsnelheid
fx = windstoten
dd = windrichting
ppp = luchtdruk
vv = zicht
sd = Zonneschijnduur
rr = neerslag

Weerstations in de omgeving